Radioactive Concentration measured by Seawater Radiation Monitor near Fukushima Daiichi Nuclear Power Station
Date,Time,Cs137(Bq/L),Cs134(Bq/L),Total β(Bq/L)
2016/11/05,00:00,0.73,0.076,ND
2016/11/05,00:10,0.75,0.071,ND
2016/11/05,00:20,0.76,0.072,ND
2016/11/05,00:30,0.77,0.088,ND
2016/11/05,00:40,0.78,0.11,ND
2016/11/05,00:50,0.83,0.10,ND
2016/11/05,01:00,0.85,0.098,ND
2016/11/05,01:10,0.85,0.098,ND
2016/11/05,01:20,0.82,0.098,ND
2016/11/05,01:30,0.82,0.091,ND
2016/11/05,01:40,0.78,0.093,ND
2016/11/05,01:50,0.74,0.093,ND
2016/11/05,02:00,0.72,0.089,ND
2016/11/05,02:10,0.68,0.097,ND
2016/11/05,02:20,0.67,0.093,ND
2016/11/05,02:30,0.63,0.10,ND
2016/11/05,02:40,0.65,0.099,ND
2016/11/05,02:50,0.65,0.095,ND
2016/11/05,03:00,0.65,0.095,ND
2016/11/05,03:10,0.67,0.087,ND
2016/11/05,03:20,0.66,0.084,ND
2016/11/05,03:30,0.66,0.075,ND
2016/11/05,03:40,0.66,0.065,ND
2016/11/05,03:50,0.65,0.063,ND
2016/11/05,04:00,0.64,0.065,ND
2016/11/05,04:10,0.63,0.059,ND
2016/11/05,04:20,0.62,0.061,ND
2016/11/05,04:30,0.64,0.056,ND
2016/11/05,04:40,0.61,0.066,ND
2016/11/05,04:50,0.62,0.062,ND
2016/11/05,05:00,0.61,0.056,ND
2016/11/05,05:10,0.59,0.061,ND
2016/11/05,05:20,0.59,0.061,ND
2016/11/05,05:30,0.57,0.065,ND
2016/11/05,05:40,0.56,0.065,ND
2016/11/05,05:50,0.58,0.061,ND
2016/11/05,06:00,0.57,0.062,ND
2016/11/05,06:10,0.55,0.061,ND
2016/11/05,06:20,0.56,0.059,ND
2016/11/05,06:30,0.56,0.061,ND
2016/11/05,06:40,0.59,0.066,ND
2016/11/05,06:50,0.58,0.065,ND
2016/11/05,07:00,0.59,0.073,ND
2016/11/05,07:10,0.61,0.077,ND
2016/11/05,07:20,0.62,0.081,8.9
2016/11/05,07:30,0.61,0.090,9.2
2016/11/05,07:40,0.62,0.084,9.3
2016/11/05,07:50,0.64,0.081,11
2016/11/05,08:00,0.65,0.077,ND
2016/11/05,08:10,0.68,0.081,ND
2016/11/05,08:20,0.70,0.073,ND
2016/11/05,08:30,0.73,0.065,ND
2016/11/05,08:40,0.74,0.066,ND
2016/11/05,08:50,0.75,0.062,ND
2016/11/05,09:00,0.76,0.065,ND
2016/11/05,09:10,0.74,0.066,ND
2016/11/05,09:20,0.72,0.065,ND
2016/11/05,09:30,0.72,0.071,ND
2016/11/05,09:40,0.72,0.076,ND
2016/11/05,09:50,0.69,0.078,ND
2016/11/05,10:00,0.67,0.082,ND
2016/11/05,10:10,0.67,0.077,ND
2016/11/05,10:20,0.68,0.079,ND
2016/11/05,10:30,0.69,0.067,9.2
2016/11/05,10:40,0.67,0.073,11
2016/11/05,10:50,0.67,0.073,8.8
2016/11/05,11:00,0.67,0.079,ND
2016/11/05,11:10,0.69,0.079,ND
2016/11/05,11:20,0.71,0.072,ND
2016/11/05,11:30,0.68,0.086,ND
2016/11/05,11:40,0.68,0.079,ND
2016/11/05,11:50,0.67,0.085,ND
2016/11/05,12:00,0.67,0.076,ND
2016/11/05,12:10,0.66,0.079,ND
2016/11/05,12:20,0.65,0.079,ND
2016/11/05,12:30,0.69,0.084,ND
2016/11/05,12:40,0.70,0.089,ND
2016/11/05,12:50,0.71,0.083,ND
2016/11/05,13:00,0.71,0.092,ND
2016/11/05,13:10,0.72,0.088,ND
2016/11/05,13:20,0.69,0.089,ND
2016/11/05,13:30,0.66,0.079,ND
2016/11/05,13:40,0.62,0.084,ND
2016/11/05,13:50,0.60,0.082,ND
2016/11/05,14:00,0.61,0.075,ND
2016/11/05,14:10,0.58,0.079,ND
2016/11/05,14:20,0.60,0.074,ND
2016/11/05,14:30,0.61,0.073,ND
2016/11/05,14:40,0.63,0.062,ND
2016/11/05,14:50,0.67,0.061,ND
2016/11/05,15:00,0.67,0.062,ND
2016/11/05,15:10,0.69,0.054,ND
2016/11/05,15:20,0.68,0.061,ND
2016/11/05,15:30,0.68,0.055,ND
2016/11/05,15:40,0.66,0.064,ND
2016/11/05,15:50,0.65,0.054,ND
2016/11/05,16:00,0.62,0.058,ND
2016/11/05,16:10,0.60,0.059,ND
2016/11/05,16:20,0.60,0.047,ND
2016/11/05,16:30,0.60,0.056,ND
2016/11/05,16:40,0.57,0.051,ND
2016/11/05,16:50,0.55,0.065,ND
2016/11/05,17:00,0.56,0.058,ND
2016/11/05,17:10,0.55,0.058,9.5
2016/11/05,17:20,0.54,0.058,12
2016/11/05,17:30,0.52,0.067,13
2016/11/05,17:40,0.54,0.071,12
2016/11/05,17:50,0.54,0.062,12
2016/11/05,18:00,0.54,0.059,11
2016/11/05,18:10,0.57,0.052,ND
2016/11/05,18:20,0.56,0.062,ND
2016/11/05,18:30,0.60,0.058,ND
2016/11/05,18:40,0.62,0.058,ND
2016/11/05,18:50,0.63,0.071,ND
2016/11/05,19:00,0.68,0.074,ND
2016/11/05,19:10,0.69,0.087,ND
2016/11/05,19:20,0.71,0.086,ND
2016/11/05,19:30,0.71,0.095,ND
2016/11/05,19:40,0.72,0.098,ND
2016/11/05,19:50,0.73,0.099,ND
2016/11/05,20:00,0.73,0.10,ND
2016/11/05,20:10,0.76,0.091,ND
2016/11/05,20:20,0.77,0.091,ND
2016/11/05,20:30,0.76,0.088,ND
2016/11/05,20:40,0.75,0.081,ND
2016/11/05,20:50,0.70,0.063,ND
2016/11/05,21:00,0.65,0.072,ND
2016/11/05,21:10,0.60,0.073,ND
2016/11/05,21:20,0.58,0.070,ND
2016/11/05,21:30,0.56,0.064,ND
2016/11/05,21:40,0.55,0.057,ND
2016/11/05,21:50,0.57,0.058,ND
2016/11/05,22:00,0.59,0.050,ND
2016/11/05,22:10,0.59,0.046,ND
2016/11/05,22:20,0.59,0.040,ND
2016/11/05,22:30,0.60,0.042,ND
2016/11/05,22:40,0.58,0.047,ND
2016/11/05,22:50,0.56,0.049,ND
2016/11/05,23:00,0.57,0.047,ND
2016/11/05,23:10,0.56,0.059,ND
2016/11/05,23:20,0.53,0.069,ND
2016/11/05,23:30,0.53,0.073,ND
2016/11/05,23:40,0.55,0.068,ND
2016/11/05,23:50,0.55,0.076,ND
